Location: �clusier
(49.9361°N, 2.7869°E)
Time: 22:52:19
(UTC+00:00)

Cosmos 1486 Rocket - Pass Details

Date: 16 June 2021
Orbit: 759 x 783 km, 74.1° (Epoch: 01 August)

Event Time Altitude Azimuth Distance (km) Brightness Sun altitude
Rises 22:09:34 0° 337° (NNW) 3,243 9.3 -13.4°
Reaches altitude 10° 22:11:59 10° 340° (NNW) 2,310 8.0 -13.5°
Maximum altitude 22:17:11 67° 63° (ENE) 827 4.2 -13.9°
Enters shadow 22:20:47 20° 143° (SE) 1,700 5.2 -14.1°
